Temperature
15 15 15 14 14 13 13 13 12 12 12 12 12 11 11 10 10 10 9 9 9 9 8 8 8 8 7 7 7 6 6 5 5 5 4 4 4 3 3 3 2 2 2
16 15 15 14 14 13 13 13 12 12 12 12 12 11 11 10 10 9 9 9 9 8 8 8 8 8 7 7 6 6 5 5 4 4 4 3 3 3 2 2 2 1 1
15 15 14 14 13 13 13 12 12 12 12 11 11 11 10 10 10 9 9 9 8 8 8 8 8 7 7 6 6 5 5 5 4 3 3 3 2 2 2 1 1 1 1
15 15 15 14 14 13 12 12 12 12 11 11 11 11 10 10 10 9 9 8 8 8 8 7 7 7 6 6 5 5 4 4 3 3 2 2 2 1 1 1 0 -0 -0
15 15 15 14 13 13 12 12 11 11 11 11 10 10 10 10 9 9 9 8 8 8 7 7 7 6 6 5 5 4 4 3 3 2 2 1 1 1 0 -0 -1 -1 -1
15 15 14 14 13 12 12 11 11 11 10 10 10 9 9 9 9 9 8 8 8 7 7 7 6 6 5 5 4 4 3 3 2 2 1 1 0 -0 -1 -1 -2 -2 -3
15 14 14 13 13 12 11 11 11 10 10 10 9 9 9 9 8 8 8 7 7 7 6 6 6 5 5 4 4 3 3 2 2 1 0 0 -1 -1 -1 -2 -2 -3 -3
15 14 14 13 12 12 11 10 10 10 9 9 9 9 8 8 8 8 7 7 7 6 6 5 5 5 4 4 3 3 2 2 1 1 0 -1 -1 -2 -2 -2 -3 -3 -4
14 14 13 13 12 11 11 10 10 9 9 9 9 8 8 8 7 7 7 6 6 5 5 5 4 4 4 3 3 2 2 1 1 0 -0 -1 -1 -2 -2 -3 -4 -4 -5
14 14 13 12 12 11 11 10 10 9 9 8 8 8 7 7 7 6 6 6 5 5 4 4 4 3 3 2 2 1 1 0 -0 -1 -1 -1 -2 -2 -3 -4 -4 -5 -5
14 13 12 12 11 11 10 10 9 9 8 8 7 7 7 6 6 6 5 5 4 4 4 3 3 3 2 2 1 1 0 -0 -1 -1 -2 -2 -3 -3 -3 -4 -4 -5 -6
13 13 12 11 11 10 9 9 9 8 8 7 7 6 6 6 5 5 5 4 4 3 3 3 2 2 1 1 0 -0 -1 -1 -2 -2 -3 -3 -3 -4 -4 -5 -5 -5 -6
13 12 11 11 10 10 9 9 8 8 7 7 6 6 6 5 5 4 4 4 3 3 2 2 2 1 1 0 -0 -1 -1 -2 -2 -3 -3 -4 -4 -5 -5 -5 -6 -6 -6
12 11 11 10 10 9 8 8 8 7 7 6 6 6 5 5 4 4 3 3 3 2 2 1 1 0 -0 -1 -1 -2 -2 -3 -3 -4 -4 -4 -5 -5 -6 -6 -6 -7 -7
12 11 10 10 9 8 8 7 7 7 7 6 6 6 5 4 4 3 3 2 2 1 1 0 -0 -0 -1 -1 -2 -2 -3 -3 -4 -4 -5 -5 -5 -6 -6 -7 -7 -7 -8
11 10 10 9 8 8 7 7 6 6 6 5 5 5 4 4 3 3 2 2 1 1 0 -0 -1 -1 -2 -2 -3 -3 -4 -4 -5 -5 -5 -6 -6 -7 -7 -7 -8 -8 -8
11 10 10 9 8 7 7 7 6 5 5 4 4 4 3 3 3 2 2 1 0 -0 -1 -1 -1 -2 -2 -3 -3 -4 -4 -5 -5 -6 -6 -6 -7 -7 -7 -8 -8 -8 -9
10 10 9 8 8 7 6 6 6 5 4 4 3 3 2 2 2 1 1 0 -0 -1 -1 -1 -2 -2 -3 -3 -4 -4 -5 -5 -6 -6 -6 -7 -7 -8 -8 -8 -8 -9 -9
9 9 8 8 7 6 6 5 5 4 4 3 2 2 2 1 1 0 0 -0 -1 -1 -1 -2 -2 -3 -3 -4 -4 -5 -5 -6 -6 -6 -7 -7 -8 -8 -8 -9 -9 -9 -9
8 8 8 7 6 5 5 4 4 3 3 2 2 2 1 1 0 -0 -1 -1 -1 -2 -2 -2 -3 -3 -4 -4 -5 -5 -6 -6 -6 -7 -7 -7 -8 -8 -9 -9 -9 -9 -9
7 7 6 6 5 5 4 4 3 3 2 2 1 1 1 0 -0 -1 -1 -1 -2 -2 -3 -3 -4 -4 -4 -5 -5 -6 -6 -6 -7 -7 -8 -8 -8 -8 -9 -9 -9 -10 -10
7 6 5 5 5 4 4 3 3 2 2 1 1 0 -0 -0 -1 -1 -2 -2 -3 -3 -3 -4 -4 -4 -5 -5 -5 -6 -6 -7 -7 -7 -8 -8 -8 -9 -9 -9 -10 -10 -10
6 5 5 4 4 3 3 2 2 1 1 1 0 -0 -1 -1 -2 -2 -2 -3 -3 -3 -4 -4 -4 -5 -5 -5 -6 -6 -7 -7 -7 -8 -8 -8 -9 -9 -9 -10 -10 -10 -10
5 4 4 3 3 2 2 2 1 1 0 0 -0 -1 -1 -2 -2 -3 -3 -3 -4 -4 -4 -4 -5 -5 -5 -6 -6 -6 -7 -7 -8 -8 -8 -9 -9 -9 -10 -10 -10 -10 -10
4 3 3 3 2 2 1 1 0 0 -0 -1 -1 -1 -2 -2 -3 -3 -3 -4 -4 -4 -5 -5 -5 -5 -6 -6 -6 -7 -7 -8 -8 -8 -9 -9 -9 -10 -10 -10 -10 -10 -10
3 2 2 2 1 1 0 0 -0 -1 -1 -1 -2 -2 -2 -3 -3 -4 -4 -4 -5 -5 -5 -5 -6 -6 -6 -6 -7 -7 -7 -8 -8 -9 -9 -9 -10 -10 -10 -10 -10 -10 -10
Wind_Speed
18 18 17 17 17 16 15 16 15 14 14 14 14 14 14 14 14 13 12 11 12 10 9 10 10 8 7 6 6 6 7 7 10 9 7 7 8 9 9 11 12 13 13
16 16 16 16 15 16 15 15 14 14 13 13 13 13 13 13 13 13 13 12 12 11 11 10 10 7 9 7 6 7 7 8 8 11 9 8 9 9 10 10 10 11 13
14 15 15 15 15 15 15 14 13 13 12 12 12 13 13 13 12 12 12 11 11 11 10 10 10 9 9 7 8 7 7 7 7 9 10 7 7 7 9 9 10 10 11
14 14 15 15 15 14 13 13 13 12 12 12 12 12 11 11 11 11 10 10 10 9 9 9 9 9 9 8 7 7 6 7 7 8 9 8 8 7 7 8 9 8 9
13 14 14 13 13 12 12 12 12 11 11 11 11 10 10 9 9 10 9 9 9 8 7 7 7 7 7 7 6 6 6 6 6 7 8 8 8 7 7 7 9 10 11
13 13 12 12 12 12 12 11 11 11 10 10 10 10 10 7 9 11 9 8 8 8 7 6 6 6 7 9 9 9 8 8 7 7 7 8 10 9 8 8 9 10 9
12 12 12 13 12 12 11 11 11 11 10 10 10 9 9 8 10 12 11 8 7 7 7 6 4 5 7 6 8 10 10 11 10 8 9 10 10 9 9 10 9 10 10
12 12 12 13 13 12 12 12 11 10 9 9 9 9 8 7 10 11 11 8 6 6 6 6 5 5 5 5 5 6 7 8 8 8 8 9 8 8 8 9 10 9 10
12 13 13 13 13 13 13 12 10 9 9 8 8 8 8 7 10 10 10 6 5 5 4 4 5 5 5 6 5 5 6 6 6 8 9 9 9 10 8 6 6 7 9
13 13 13 13 13 13 12 11 9 9 8 8 7 7 7 7 9 10 10 5 5 4 3 4 5 5 5 6 5 5 6 6 5 6 7 8 8 8 8 6 6 7 8
12 12 12 12 12 12 11 10 10 9 9 8 7 6 6 6 9 10 9 5 5 4 3 3 3 5 5 5 5 5 5 5 5 5 5 5 5 5 5 5 5 6 7
13 13 13 12 11 10 12 10 10 10 9 8 7 6 4 5 6 8 9 6 5 4 3 3 3 4 4 4 4 4 4 4 4 4 5 5 5 5 5 5 6 7 8
14 13 13 12 11 11 11 11 10 9 8 7 7 6 5 4 4 7 7 6 5 3 2 2 2 3 3 3 3 3 3 3 3 4 5 5 5 5 5 5 6 6 8
15 14 13 12 11 10 9 9 9 8 8 7 7 6 5 5 4 4 5 4 5 3 2 3 3 3 2 2 2 2 2 3 3 4 5 5 5 4 5 5 5 5 6
14 13 12 11 11 10 8 6 7 6 7 8 7 7 7 6 6 7 5 4 4 3 3 2 2 2 2 2 2 2 2 2 3 4 4 5 4 5 5 4 4 5 5
14 13 11 10 10 9 9 7 7 6 8 7 7 6 5 5 8 8 7 6 6 6 4 3 3 3 3 3 2 3 3 3 3 4 4 4 4 5 5 4 4 5 6
15 14 11 11 10 10 9 9 8 7 9 8 8 8 7 8 9 8 8 7 7 6 3 3 3 3 3 3 3 3 3 3 3 3 4 4 4 5 5 5 5 5 6
14 13 12 10 10 10 9 9 8 9 7 5 6 7 8 8 8 8 8 6 4 4 3 3 3 3 3 3 3 3 3 3 3 3 4 4 4 4 4 5 5 5 6
12 11 10 10 9 9 9 8 8 8 7 6 5 5 6 7 7 7 7 4 4 4 3 3 3 3 3 3 3 3 3 3 3 3 4 4 4 4 4 5 5 6 6
10 13 12 10 9 9 8 8 8 7 7 6 6 6 6 5 5 5 4 3 4 4 4 3 3 3 3 3 3 3 4 4 4 4 4 4 4 4 5 5 5 5 5
10 11 13 10 9 9 8 8 7 7 6 6 5 6 7 5 5 5 4 4 4 4 4 3 3 3 3 3 4 4 4 4 4 4 4 4 4 4 4 4 4 4 5
10 10 9 9 8 8 8 7 7 7 7 6 5 5 7 4 4 4 4 4 3 3 3 3 3 3 3 4 4 4 4 5 4 4 4 4 4 4 4 4 4 4 4
10 10 9 8 8 10 8 7 6 6 6 6 5 5 5 4 4 4 4 3 3 3 3 3 4 4 3 4 4 5 5 5 5 4 4 4 4 4 4 4 4 4 4
10 10 10 9 8 7 7 7 6 6 6 5 5 4 4 4 4 4 4 3 3 3 4 4 4 4 5 4 5 5 5 5 5 5 5 5 4 4 4 4 4 4 4
9 9 9 8 8 7 7 6 6 6 5 4 4 4 3 3 3 4 3 3 4 4 4 4 4 5 6 6 6 6 6 7 7 6 5 5 5 5 4 4 4 3 3
9 9 8 7 7 7 6 6 6 5 4 4 3 3 3 3 3 3 3 3 3 4 4 4 5 5 6 6 7 8 8 8 8 8 6 4 5 5 4 4 4 3 3
Wind_Direction
193 195 197 199 201 202 203 205 205 204 201 199 200 201 202 202 202 203 205 202 207 209 208 214 219 217 216 217 220 227 235 241 260 274 272 274 274 274 276 277 281 283 284
190 192 195 196 196 199 201 202 201 201 199 199 197 198 201 201 201 203 204 203 207 210 211 213 219 215 221 221 221 227 235 240 254 272 277 277 276 279 282 285 286 284 284
185 188 190 192 194 196 198 197 196 196 195 194 194 196 199 200 200 203 203 202 207 211 211 213 216 213 222 223 225 231 237 243 251 265 277 282 282 283 286 285 284 284 285
181 184 188 191 192 193 193 192 192 190 189 190 192 195 196 196 196 198 199 202 207 211 212 212 214 214 222 226 229 235 239 245 252 261 272 280 282 287 287 287 291 291 292
179 183 187 186 185 185 186 187 185 185 185 185 186 189 190 191 193 192 193 197 202 208 212 215 220 221 226 227 228 233 234 242 251 259 268 278 280 286 286 290 291 296 296
179 181 179 178 178 180 180 179 177 178 179 180 185 186 189 190 182 184 187 193 199 205 212 217 220 221 226 230 234 236 233 240 248 257 268 272 279 284 289 288 291 296 297
177 176 175 175 175 175 172 172 175 177 177 179 183 185 189 187 176 181 184 192 198 206 210 211 213 221 222 232 238 240 241 245 249 257 266 270 282 287 290 289 289 290 292
173 174 173 172 172 170 170 173 175 175 176 178 180 181 183 179 174 178 179 192 199 203 205 207 212 218 218 226 237 243 248 249 252 258 268 276 284 292 288 288 291 292 291
175 175 173 171 169 169 171 173 171 169 170 170 173 176 178 173 169 171 171 185 193 199 199 204 209 219 218 218 230 244 256 262 259 259 269 279 288 291 294 295 296 296 297
179 174 170 169 169 169 169 167 164 163 162 159 162 170 172 169 163 167 173 178 187 191 192 202 208 221 216 216 232 244 255 265 271 273 272 274 281 283 280 279 284 289 297
169 164 164 166 166 164 160 160 157 154 153 154 154 158 162 161 161 166 173 180 185 188 196 206 212 212 218 224 241 252 264 279 275 276 282 285 285 284 283 284 283 279 284
159 158 159 159 156 155 154 154 155 154 154 154 154 151 152 153 157 167 175 180 180 189 201 208 209 204 217 225 239 265 272 277 278 279 282 285 287 289 290 290 289 283 277
155 155 154 152 153 155 155 154 155 158 158 160 160 160 155 151 154 161 171 175 175 184 187 186 189 190 209 222 240 256 261 268 275 277 282 288 292 296 297 296 295 290 286
155 153 152 151 150 150 151 155 158 162 162 162 164 164 159 159 160 165 170 170 166 173 165 162 171 172 196 229 237 241 256 268 273 279 288 294 299 296 292 297 300 303 301
153 151 151 150 148 146 144 148 156 161 168 166 169 167 168 175 177 171 171 176 179 171 157 158 179 194 218 231 245 257 268 272 276 284 288 294 297 297 298 302 299 299 297
151 153 153 151 148 145 140 123 92 115 122 127 138 151 157 155 156 165 165 158 155 157 162 186 202 215 232 242 251 263 270 275 280 284 285 288 291 294 297 298 297 296 298
155 154 153 153 152 150 149 147 138 112 107 117 128 134 140 148 155 159 156 152 157 164 183 201 215 225 236 241 249 258 267 274 278 277 280 286 290 292 293 294 296 299 299
152 151 151 152 152 152 153 152 151 150 147 135 128 134 140 147 153 155 151 149 168 182 204 211 219 225 234 241 247 257 265 269 269 272 277 281 284 287 288 291 293 299 301
149 150 147 145 145 146 145 145 146 148 147 145 142 143 145 147 150 155 160 178 188 200 209 217 223 227 232 239 245 251 257 260 266 269 272 276 278 280 283 287 291 297 296
145 143 143 143 143 143 145 147 148 150 151 156 161 160 157 158 166 173 183 190 196 205 211 219 226 232 234 238 241 246 253 258 260 261 268 271 272 274 277 282 288 292 294
140 142 138 138 143 147 149 151 152 153 157 161 164 166 171 177 184 189 195 199 205 210 214 220 225 229 232 236 241 245 250 257 259 262 265 266 267 270 274 278 283 285 293
141 144 145 142 142 145 146 148 151 154 160 160 160 165 176 187 192 197 203 208 212 217 219 223 229 232 234 237 241 246 251 256 257 257 260 261 262 266 269 273 280 287 292
137 138 136 136 138 142 142 146 151 157 161 163 165 171 181 191 196 202 209 213 213 217 220 225 233 239 242 245 247 247 250 254 255 255 257 258 259 262 266 268 272 281 290
135 137 138 139 141 147 148 151 155 159 163 166 173 180 187 194 201 207 213 217 219 221 223 227 234 237 242 252 254 251 254 260 259 253 248 249 254 258 261 262 265 274 282
132 135 138 142 145 147 149 151 156 160 164 170 177 183 190 199 206 210 213 216 222 226 229 234 237 239 242 246 252 256 256 256 255 251 241 241 243 246 252 256 260 266 270
130 133 135 138 142 146 150 154 158 162 167 173 180 188 196 205 211 214 214 217 222 228 234 238 239 244 250 251 251 253 256 255 250 246 242 237 234 237 240 244 245 247 248
Height
1438 1442 1447 1451 1455 1459 1463 1467 1471 1474 1477 1481 1484 1487 1490 1492 1495 1497 1499 1501 1503 1504 1505 1506 1507 1507 1507 1507 1506 1506 1505 1503 1500 1498 1497 1495 1493 1490 1487 1484 1481 1478 1475
1433 1437 1442 1446 1450 1454 1457 1461 1465 1469 1472 1475 1478 1481 1484 1487 1489 1491 1494 1496 1497 1498 1500 1501 1501 1501 1501 1501 1501 1500 1499 1498 1496 1493 1491 1489 1487 1484 1482 1479 1475 1472 1469
1428 1433 1437 1441 1444 1448 1452 1456 1460 1463 1467 1470 1472 1475 1478 1481 1484 1486 1488 1490 1491 1493 1494 1495 1495 1495 1495 1495 1494 1494 1493 1492 1490 1488 1485 1483 1481 1479 1475 1472 1470 1466 1463
1424 1428 1432 1435 1439 1443 1447 1451 1454 1458 1461 1464 1467 1470 1473 1476 1478 1480 1483 1484 1486 1487 1488 1489 1489 1489 1489 1489 1489 1488 1487 1486 1484 1482 1480 1477 1475 1473 1470 1467 1463 1461 1457
1420 1424 1427 1431 1435 1439 1442 1446 1449 1453 1456 1460 1462 1465 1468 1471 1473 1475 1477 1479 1480 1481 1482 1483 1483 1484 1484 1484 1483 1482 1481 1480 1478 1476 1474 1472 1470 1467 1465 1461 1458 1454 1451
1416 1419 1423 1427 1430 1434 1438 1441 1445 1448 1452 1455 1458 1460 1463 1465 1468 1470 1472 1474 1475 1476 1476 1477 1477 1478 1478 1478 1477 1477 1476 1475 1473 1471 1468 1467 1464 1462 1460 1456 1453 1449 1445
1412 1415 1419 1422 1426 1430 1433 1437 1440 1444 1447 1450 1453 1456 1458 1460 1463 1465 1467 1469 1470 1470 1471 1471 1471 1472 1472 1472 1471 1471 1470 1469 1468 1466 1463 1461 1459 1457 1454 1451 1448 1444 1441
1408 1411 1415 1418 1422 1425 1429 1433 1436 1440 1443 1446 1448 1451 1454 1456 1458 1461 1462 1464 1464 1465 1466 1466 1467 1467 1467 1467 1466 1465 1464 1463 1462 1460 1458 1456 1454 1451 1449 1446 1443 1439 1435
1403 1407 1410 1414 1417 1421 1425 1428 1432 1435 1438 1441 1444 1447 1449 1452 1454 1456 1457 1458 1459 1460 1461 1461 1462 1462 1462 1461 1461 1460 1458 1457 1456 1454 1453 1450 1448 1446 1443 1440 1437 1434 1430
1399 1403 1406 1410 1414 1417 1421 1425 1428 1431 1434 1437 1440 1443 1445 1447 1449 1451 1453 1454 1454 1455 1456 1456 1457 1457 1457 1456 1455 1454 1453 1452 1450 1449 1447 1445 1442 1440 1438 1436 1433 1430 1426
1395 1399 1403 1407 1410 1414 1418 1421 1424 1427 1431 1433 1436 1439 1441 1443 1445 1447 1448 1449 1450 1450 1451 1451 1452 1452 1452 1451 1450 1449 1448 1447 1445 1443 1441 1439 1437 1435 1433 1430 1428 1426 1422
1390 1394 1399 1403 1407 1410 1414 1417 1421 1424 1427 1429 1432 1434 1437 1438 1440 1442 1444 1445 1446 1446 1446 1447 1447 1447 1447 1446 1445 1444 1444 1442 1440 1438 1436 1434 1432 1430 1428 1425 1423 1421 1418
1386 1390 1394 1399 1403 1407 1410 1414 1417 1420 1423 1425 1428 1430 1432 1434 1436 1438 1440 1441 1441 1442 1442 1443 1443 1442 1442 1441 1441 1440 1439 1437 1436 1434 1432 1430 1428 1426 1423 1421 1418 1416 1413
1381 1386 1390 1394 1399 1403 1407 1411 1414 1416 1419 1421 1424 1426 1428 1430 1432 1434 1435 1436 1437 1438 1438 1438 1438 1438 1437 1437 1436 1435 1434 1433 1431 1430 1428 1426 1424 1421 1419 1416 1414 1411 1409
1377 1382 1386 1391 1395 1399 1403 1407 1410 1413 1416 1418 1420 1422 1424 1426 1428 1430 1431 1432 1432 1433 1433 1434 1434 1433 1433 1432 1431 1430 1429 1428 1427 1425 1424 1422 1420 1418 1415 1413 1411 1408 1406
1372 1377 1382 1386 1391 1395 1399 1403 1407 1410 1413 1415 1417 1419 1421 1423 1425 1426 1427 1428 1428 1429 1429 1429 1429 1429 1428 1428 1427 1426 1425 1424 1423 1421 1420 1418 1416 1414 1412 1410 1408 1406 1403
1368 1373 1378 1382 1387 1391 1395 1399 1402 1406 1409 1412 1414 1416 1418 1419 1421 1422 1423 1424 1424 1425 1425 1425 1425 1425 1424 1423 1423 1422 1421 1420 1419 1417 1416 1414 1412 1411 1409 1407 1405 1403 1401
1366 1370 1374 1379 1384 1388 1392 1396 1399 1401 1404 1407 1410 1412 1414 1416 1417 1418 1419 1419 1420 1420 1420 1421 1421 1420 1420 1419 1418 1418 1417 1416 1414 1413 1412 1410 1409 1407 1406 1404 1402 1401 1399
1362 1367 1372 1376 1381 1385 1389 1393 1396 1399 1401 1403 1406 1408 1410 1412 1413 1414 1415 1415 1415 1416 1416 1416 1416 1416 1416 1415 1414 1414 1413 1412 1411 1409 1408 1406 1405 1404 1403 1401 1400 1398 1396
1360 1365 1369 1374 1378 1382 1386 1390 1393 1396 1398 1400 1403 1404 1406 1408 1409 1409 1410 1411 1411 1412 1412 1412 1412 1412 1411 1411 1410 1409 1408 1408 1407 1405 1404 1403 1402 1401 1399 1398 1397 1395 1394
1358 1363 1368 1372 1376 1380 1383 1387 1390 1393 1395 1397 1399 1401 1403 1404 1404 1405 1406 1407 1407 1407 1408 1408 1408 1408 1407 1407 1406 1405 1404 1403 1402 1401 1400 1399 1398 1397 1396 1395 1394 1393 1392
1356 1360 1365 1369 1373 1377 1381 1384 1387 1390 1392 1394 1396 1398 1399 1400 1401 1402 1402 1403 1403 1404 1404 1404 1404 1403 1403 1402 1402 1401 1400 1399 1398 1397 1396 1396 1395 1394 1393 1393 1392 1391 1390
1355 1359 1363 1367 1371 1375 1378 1381 1384 1386 1389 1390 1392 1393 1395 1396 1397 1398 1398 1399 1399 1399 1400 1399 1399 1399 1398 1398 1397 1396 1396 1395 1394 1394 1393 1392 1391 1391 1390 1390 1390 1389 1388
1353 1357 1361 1365 1368 1372 1375 1378 1381 1383 1385 1387 1389 1390 1391 1392 1392 1393 1394 1394 1395 1395 1395 1395 1394 1394 1394 1393 1392 1392 1391 1391 1390 1389 1389 1389 1388 1388 1388 1387 1387 1387 1386
1352 1356 1359 1363 1366 1370 1373 1375 1378 1380 1382 1384 1385 1386 1387 1388 1388 1389 1389 1390 1390 1390 1390 1390 1389 1389 1389 1388 1388 1387 1387 1386 1386 1385 1385 1385 1385 1385 1385 1385 1385 1385 1384
1351 1354 1358 1361 1364 1368 1370 1373 1375 1377 1379 1380 1381 1382 1383 1383 1384 1384 1385 1385 1385 1385 1385 1385 1385 1384 1384 1383 1383 1383 1382 1382 1381 1381 1381 1381 1381 1382 1382 1382 1382 1383 1383